Retour au catalogue

SCOUT G-1 DEB

ActifPO
NORAD 43330·DEBRIS·🇺🇸 United States

Lancé Apr 26, 1988 depuis Vandenberg Space Force Base

Loading…

Prochains Passages (prochaines 24 heures)

TLE

VieillissantSource: Space-Track

Époque: Sep 8, 2026, 01:44 UTC

1 43330U 88033L   26251.07261218  .00000232  00000-0  41161-3 0  9991
2 43330  90.3247  21.0479 0190638  98.8551 263.4227 13.32908608670634

Suivez SCOUT G-1 DEB en temps réel avec AllMySat

Download on the App Store